Time,TemperatureF,DewpointF,PressureIn,WindDirection,WindDirectionDegrees,WindSpeedMPH,WindSpeedGustMPH,Humidity,HourlyPrecipIn,Conditions,Clouds,dailyrainin,SoftwareType,DateUTC
2013-02-15 00:08:00,26.9,20.0,30.11,SSW,209,1.0,2.0,76,0.00,,,0.03,weatherlink.com 1.10,2013-02-15 05:08:00,
2013-02-15 00:23:00,26.7,20.0,30.10,SSW,209,1.0,2.0,76,0.00,,,0.03,weatherlink.com 1.10,2013-02-15 05:23:00,
2013-02-15 00:38:00,26.5,20.0,30.09,SSW,209,1.0,2.0,77,0.00,,,0.00,weatherlink.com 1.10,2013-02-15 05:38:00,
2013-02-15 00:53:00,26.1,20.0,30.10,SW,215,1.0,3.0,78,0.00,,,0.00,weatherlink.com 1.10,2013-02-15 05:53:00,
2013-02-15 01:08:00,25.8,20.0,30.10,SW,215,1.0,3.0,79,0.00,,,0.00,weatherlink.com 1.10,2013-02-15 06:08:00,
2013-02-15 01:23:00,25.4,20.0,30.10,SW,215,0.0,2.0,80,0.00,,,0.00,weatherlink.com 1.10,2013-02-15 06:23:00,
2013-02-15 01:38:00,25.0,20.0,30.10,SW,215,0.0,1.0,81,0.00,,,0.00,weatherlink.com 1.10,2013-02-15 06:38:00,
2013-02-15 01:53:00,24.9,20.0,30.10,SW,215,1.0,2.0,82,0.00,,,0.00,weatherlink.com 1.10,2013-02-15 06:53:00,
2013-02-15 02:09:00,25.4,20.0,30.10,SW,215,0.0,2.0,81,0.00,,,0.00,weatherlink.com 1.10,2013-02-15 07:09:00,
2013-02-15 02:23:00,25.6,21.0,30.10,SW,215,1.0,2.0,81,0.00,,,0.00,weatherlink.com 1.10,2013-02-15 07:23:00,
2013-02-15 02:38:00,25.8,21.0,30.09,SW,215,0.0,1.0,81,0.00,,,0.00,weatherlink.com 1.10,2013-02-15 07:38:00,
2013-02-15 02:54:00,25.7,21.0,30.09,SW,215,1.0,1.0,81,0.00,,,0.00,weatherlink.com 1.10,2013-02-15 07:54:00,
2013-02-15 03:08:00,25.3,21.0,30.09,SW,215,0.0,2.0,82,0.00,,,0.00,weatherlink.com 1.10,2013-02-15 08:08:00,
2013-02-15 03:23:00,25.2,21.0,30.10,SW,215,0.0,0.0,84,0.00,,,0.00,weatherlink.com 1.10,2013-02-15 08:23:00,
2013-02-15 03:38:00,25.2,21.0,30.09,SW,215,0.0,0.0,84,0.00,,,0.00,weatherlink.com 1.10,2013-02-15 08:38:00,
2013-02-15 03:53:00,25.6,21.0,30.09,SW,215,0.0,1.0,84,0.00,,,0.00,weatherlink.com 1.10,2013-02-15 08:53:00,
2013-02-15 04:08:00,25.9,22.0,30.09,SW,215,0.0,0.0,84,0.00,,,0.00,weatherlink.com 1.10,2013-02-15 09:08:00,
2013-02-15 04:23:00,25.9,22.0,30.09,SW,215,0.0,0.0,84,0.00,,,0.00,weatherlink.com 1.10,2013-02-15 09:23:00,
2013-02-15 04:38:00,25.8,22.0,30.08,SW,215,0.0,1.0,85,0.00,,,0.00,weatherlink.com 1.10,2013-02-15 09:38:00,
2013-02-15 04:53:00,25.6,22.0,30.08,SW,215,2.0,3.0,85,0.00,,,0.00,weatherlink.com 1.10,2013-02-15 09:53:00,
2013-02-15 05:09:00,25.8,23.0,30.09,SW,225,0.0,3.0,88,0.00,,,0.00,weatherlink.com 1.10,2013-02-15 10:09:00,
2013-02-15 05:24:00,25.9,23.0,30.09,West,265,4.0,6.0,88,0.00,,,0.00,weatherlink.com 1.10,2013-02-15 10:24:00,
2013-02-15 05:39:00,25.7,23.0,30.09,WSW,254,3.0,4.0,89,0.00,,,0.00,weatherlink.com 1.10,2013-02-15 10:39:00,
2013-02-15 05:54:00,25.5,23.0,30.10,SW,232,2.0,6.0,89,0.00,,,0.00,weatherlink.com 1.10,2013-02-15 10:54:00,
2013-02-15 06:09:00,25.7,23.0,30.09,WSW,254,1.0,4.0,90,0.00,,,0.00,weatherlink.com 1.10,2013-02-15 11:09:00,
2013-02-15 06:24:00,25.6,23.0,30.09,SSW,209,2.0,5.0,91,0.00,,,0.00,weatherlink.com 1.10,2013-02-15 11:24:00,
2013-02-15 06:39:00,25.5,24.0,30.08,SW,226,0.0,3.0,92,0.00,,,0.00,weatherlink.com 1.10,2013-02-15 11:39:00,
2013-02-15 06:54:00,25.6,24.0,30.08,SSW,210,2.0,5.0,93,0.00,,,0.00,weatherlink.com 1.10,2013-02-15 11:54:00,
2013-02-15 07:09:00,25.9,24.0,30.08,WSW,243,1.0,4.0,93,0.00,,,0.00,weatherlink.com 1.10,2013-02-15 12:09:00,
2013-02-15 07:24:00,25.9,24.0,30.08,SW,234,2.0,3.0,93,0.00,,,0.00,weatherlink.com 1.10,2013-02-15 12:24:00,
2013-02-15 07:39:00,25.6,24.0,30.09,West,274,1.0,3.0,93,0.00,,,0.00,weatherlink.com 1.10,2013-02-15 12:39:00,
2013-02-15 07:54:00,26.0,24.0,30.10,South,184,1.0,2.0,93,0.00,,,0.00,weatherlink.com 1.10,2013-02-15 12:54:00,
2013-02-15 08:09:00,26.4,24.0,30.10,WSW,258,2.0,3.0,92,0.00,,,0.00,weatherlink.com 1.10,2013-02-15 13:09:00,
2013-02-15 08:24:00,28.2,26.0,30.11,West,259,2.0,4.0,91,0.00,,,0.00,weatherlink.com 1.10,2013-02-15 13:24:00,
2013-02-15 08:39:00,29.1,26.0,30.11,SSW,205,3.0,7.0,88,0.00,,,0.00,weatherlink.com 1.10,2013-02-15 13:39:00,
2013-02-15 08:54:00,30.1,27.0,30.11,SSW,211,2.0,7.0,87,0.00,,,0.00,weatherlink.com 1.10,2013-02-15 13:54:00,
2013-02-15 09:09:00,30.6,27.0,30.11,SW,218,2.0,5.0,86,0.00,,,0.00,weatherlink.com 1.10,2013-02-15 14:09:00,
2013-02-15 09:24:00,30.8,27.0,30.11,SSW,211,1.0,5.0,85,0.00,,,0.00,weatherlink.com 1.10,2013-02-15 14:24:00,
2013-02-15 09:39:00,31.6,27.0,30.11,WSW,252,4.0,5.0,84,0.00,,,0.00,weatherlink.com 1.10,2013-02-15 14:39:00,
2013-02-15 09:54:00,32.6,28.0,30.11,SSW,213,2.0,4.0,83,0.00,,,0.00,weatherlink.com 1.10,2013-02-15 14:54:00,
2013-02-15 10:09:00,33.6,28.0,30.11,WSW,244,4.0,7.0,81,0.00,,,0.00,weatherlink.com 1.10,2013-02-15 15:09:00,
2013-02-15 10:25:00,35.1,29.0,30.11,SSW,212,3.0,4.0,77,0.00,,,0.00,weatherlink.com 1.10,2013-02-15 15:25:00,
2013-02-15 10:40:00,36.2,29.0,30.10,SSW,213,3.0,5.0,76,0.00,,,0.00,weatherlink.com 1.10,2013-02-15 15:40:00,
2013-02-15 10:54:00,37.5,30.0,30.09,SSW,205,0.0,5.0,73,0.00,,,0.00,weatherlink.com 1.10,2013-02-15 15:54:00,
2013-02-15 11:09:00,39.6,31.0,30.09,SSW,207,0.0,3.0,70,0.00,,,0.00,weatherlink.com 1.10,2013-02-15 16:09:00,
2013-02-15 11:24:00,40.2,30.0,30.08,SE,135,3.0,5.0,66,0.00,,,0.00,weatherlink.com 1.10,2013-02-15 16:24:00,
2013-02-15 11:39:00,41.7,30.0,30.07,South,175,3.0,3.0,63,0.00,,,0.00,weatherlink.com 1.10,2013-02-15 16:39:00,
2013-02-15 11:55:00,43.4,31.0,30.06,SSE,159,0.0,5.0,62,0.00,,,0.00,weatherlink.com 1.10,2013-02-15 16:55:00,
2013-02-15 12:10:00,43.3,30.0,30.06,West,267,3.0,5.0,60,0.00,,,0.00,weatherlink.com 1.10,2013-02-15 17:10:00,
2013-02-15 12:25:00,44.6,30.0,30.05,SSW,195,3.0,5.0,57,0.00,,,0.00,weatherlink.com 1.10,2013-02-15 17:25:00,
2013-02-15 12:40:00,44.3,28.0,30.04,WSW,248,4.0,7.0,53,0.00,,,0.00,weatherlink.com 1.10,2013-02-15 17:40:00,
2013-02-15 12:55:00,45.9,29.0,30.04,SSW,206,3.0,5.0,51,0.00,,,0.00,weatherlink.com 1.10,2013-02-15 17:55:00,
2013-02-15 13:10:00,46.3,29.0,30.03,WNW,288,4.0,6.0,51,0.00,,,0.00,weatherlink.com 1.10,2013-02-15 18:10:00,
2013-02-15 13:25:00,46.3,27.0,30.04,West,277,4.0,8.0,48,0.00,,,0.00,weatherlink.com 1.10,2013-02-15 18:25:00,
2013-02-15 13:40:00,46.2,26.0,30.03,NW,314,6.0,9.0,46,0.00,,,0.00,weatherlink.com 1.10,2013-02-15 18:40:00,
2013-02-15 13:55:00,46.5,26.0,30.03,WNW,300,3.0,10.0,45,0.00,,,0.00,weatherlink.com 1.10,2013-02-15 18:55:00,
2013-02-15 14:10:00,46.2,27.0,30.03,West,278,3.0,8.0,47,0.00,,,0.00,weatherlink.com 1.10,2013-02-15 19:10:00,
2013-02-15 14:25:00,45.8,26.0,30.03,West,273,5.0,8.0,47,0.00,,,0.00,weatherlink.com 1.10,2013-02-15 19:25:00,
2013-02-15 14:40:00,46.2,27.0,30.03,West,273,4.0,9.0,47,0.00,,,0.00,weatherlink.com 1.10,2013-02-15 19:40:00,
2013-02-15 14:55:00,46.3,27.0,30.03,NW,304,5.0,10.0,47,0.00,,,0.00,weatherlink.com 1.10,2013-02-15 19:55:00,
2013-02-15 15:10:00,45.4,27.0,30.03,NNW,329,6.0,11.0,48,0.00,,,0.00,weatherlink.com 1.10,2013-02-15 20:10:00,
2013-02-15 15:25:00,45.4,27.0,30.04,NW,305,2.0,8.0,49,0.00,,,0.00,weatherlink.com 1.10,2013-02-15 20:25:00,
2013-02-15 15:40:00,45.4,27.0,30.03,NNW,332,1.0,8.0,49,0.00,,,0.00,weatherlink.com 1.10,2013-02-15 20:40:00,
2013-02-15 15:55:00,45.0,27.0,30.03,WNW,293,2.0,5.0,50,0.00,,,0.00,weatherlink.com 1.10,2013-02-15 20:55:00,
2013-02-15 16:10:00,44.4,27.0,30.04,WNW,296,3.0,8.0,50,0.00,,,0.00,weatherlink.com 1.10,2013-02-15 21:10:00,
2013-02-15 16:25:00,44.5,26.0,30.03,WNW,302,2.0,7.0,49,0.00,,,0.00,weatherlink.com 1.10,2013-02-15 21:25:00,
2013-02-15 16:40:00,43.8,27.0,30.04,WNW,297,1.0,5.0,51,0.00,,,0.00,weatherlink.com 1.10,2013-02-15 21:40:00,
2013-02-15 16:55:00,42.9,26.0,30.04,WNW,302,1.0,4.0,52,0.00,,,0.00,weatherlink.com 1.10,2013-02-15 21:55:00,
2013-02-15 17:10:00,42.0,26.0,30.06,West,281,3.0,9.0,54,0.00,,,0.00,weatherlink.com 1.10,2013-02-15 22:10:00,
2013-02-15 17:25:00,40.6,27.0,30.06,NW,304,2.0,7.0,58,0.00,,,0.00,weatherlink.com 1.10,2013-02-15 22:25:00,
2013-02-15 17:40:00,39.5,26.0,30.06,WNW,300,0.0,6.0,60,0.00,,,0.00,weatherlink.com 1.10,2013-02-15 22:40:00,
2013-02-15 17:55:00,39.2,27.0,30.07,NW,305,2.0,4.0,61,0.00,,,0.00,weatherlink.com 1.10,2013-02-15 22:55:00,
2013-02-15 18:10:00,39.1,26.0,30.07,NW,322,3.0,6.0,59,0.00,,,0.00,weatherlink.com 1.10,2013-02-15 23:10:00,
2013-02-15 18:25:00,38.7,25.0,30.06,NW,309,1.0,6.0,59,0.00,,,0.00,weatherlink.com 1.10,2013-02-15 23:25:00,
2013-02-15 18:40:00,38.2,25.0,30.07,ESE,118,0.0,5.0,59,0.00,,,0.00,weatherlink.com 1.10,2013-02-15 23:40:00,
2013-02-15 18:55:00,38.3,25.0,30.07,SSW,204,1.0,5.0,58,0.00,,,0.00,weatherlink.com 1.10,2013-02-15 23:55:00,
2013-02-15 19:10:00,37.9,24.0,30.07,SSW,192,3.0,3.0,58,0.00,,,0.00,weatherlink.com 1.10,2013-02-16 00:10:00,
2013-02-15 19:25:00,37.4,24.0,30.08,WNW,296,1.0,3.0,59,0.00,,,0.00,weatherlink.com 1.10,2013-02-16 00:25:00,
2013-02-15 19:40:00,36.5,24.0,30.08,NW,318,2.0,2.0,60,0.00,,,0.00,weatherlink.com 1.10,2013-02-16 00:40:00,
2013-02-15 19:55:00,36.2,23.0,30.08,East,82,0.0,3.0,60,0.00,,,0.00,weatherlink.com 1.10,2013-02-16 00:55:00,
2013-02-15 20:10:00,35.8,23.0,30.08,East,82,2.0,2.0,61,0.00,,,0.00,weatherlink.com 1.10,2013-02-16 01:10:00,
2013-02-15 20:25:00,34.6,23.0,30.08,North,355,0.0,2.0,63,0.00,,,0.00,weatherlink.com 1.10,2013-02-16 01:25:00,
2013-02-15 20:40:00,34.4,23.0,30.08,North,355,0.0,1.0,63,0.00,,,0.00,weatherlink.com 1.10,2013-02-16 01:40:00,
2013-02-15 20:55:00,33.5,23.0,30.08,NNW,331,2.0,3.0,65,0.00,,,0.00,weatherlink.com 1.10,2013-02-16 01:55:00,
2013-02-15 21:10:00,32.8,23.0,30.08,North,355,1.0,3.0,66,0.00,,,0.00,weatherlink.com 1.10,2013-02-16 02:10:00,
2013-02-15 21:25:00,31.9,23.0,30.08,North,355,1.0,2.0,69,0.00,,,0.00,weatherlink.com 1.10,2013-02-16 02:25:00,
2013-02-15 21:40:00,32.7,23.0,30.08,NNW,341,0.0,2.0,67,0.00,,,0.00,weatherlink.com 1.10,2013-02-16 02:40:00,
2013-02-15 21:55:00,33.6,23.0,30.08,NNW,341,0.0,2.0,65,0.00,,,0.00,weatherlink.com 1.10,2013-02-16 02:55:00,
2013-02-15 22:10:00,34.0,22.0,30.09,NNW,341,1.0,2.0,63,0.00,,,0.00,weatherlink.com 1.10,2013-02-16 03:10:00,
2013-02-15 22:25:00,33.5,23.0,30.08,NNW,341,0.0,2.0,65,0.00,,,0.00,weatherlink.com 1.10,2013-02-16 03:25:00,
2013-02-15 22:40:00,32.8,23.0,30.08,NNW,341,0.0,0.0,67,0.00,,,0.00,weatherlink.com 1.10,2013-02-16 03:40:00,
2013-02-15 22:55:00,32.7,24.0,30.08,NNW,341,0.0,0.0,71,0.00,,,0.00,weatherlink.com 1.10,2013-02-16 03:55:00,
2013-02-15 23:10:00,33.0,23.0,30.08,NNW,339,0.0,2.0,67,0.00,,,0.00,weatherlink.com 1.10,2013-02-16 04:10:00,
2013-02-15 23:25:00,32.7,23.0,30.08,NNW,337,0.0,2.0,67,0.00,,,0.00,weatherlink.com 1.10,2013-02-16 04:25:00,
2013-02-15 23:40:00,33.4,22.0,30.09,NNW,337,0.0,2.0,64,0.00,,,0.00,weatherlink.com 1.10,2013-02-16 04:40:00,
2013-02-15 23:55:00,34.2,22.0,30.10,NW,309,0.0,3.0,62,0.00,,,0.00,weatherlink.com 1.10,2013-02-16 04:55:00,